Estación meteorológica de Cercs - La Baells (Berguedà, Cercs)

Consulta los datos en tiempo real de la estación meteorológica de Cercs - La Baells





Hora UTC 04:50
Temperatura 18.1 ºC
Humedad 79.0 %
Presión 1022.2 hPa
Pluja 0.0 mm
Velocidad viento 0.0 km/h
Dirección viento S

Datos diarios 2026-09-06



Hora UTC (invierno +1h; verano +2h)
DADES NO VALIDADES
Temperatura (ºC) Humedad (%) Presión (hPa) Velocidad viento (km/h) Precipitación (mm)
Hora UTC Aire Humedad Presión Vel. Dir. Vel. Max Dir. Intent. máx 5 min.
00:05 20.2 71.7 1022.2 1.0 NW 1.0 NW 0.0
00:10 20.2 72.1 1022.2 0.3 NNW 1.0 NW 0.0
00:15 20.2 72.2 1022.2 0.2 NNW 1.0 NW 0.0
00:20 20.0 73.3 1022.2 0.1 WSW 1.0 NW 0.0
00:25 20.0 73.5 1022.2 0.1 SW 1.0 NW 0.0
00:30 20.0 73.1 1022.2 0.0 SW 1.0 NW 0.0
00:35 20.0 73.0 1022.2 0.0 SW 1.0 NW 0.0
00:40 20.1 72.0 1022.2 0.1 NW 1.0 NW 0.0
00:45 20.1 71.7 1022.2 0.1 NNW 1.0 NW 0.0
00:50 19.9 73.1 1022.2 0.1 N 1.0 NW 0.0
00:55 19.8 73.5 1022.2 0.1 N 1.0 NW 0.0
01:00 19.9 72.6 1022.2 0.1 NW 1.0 NW 0.0
01:05 19.9 72.4 1022.2 0.1 NW 1.0 NW 0.0
01:10 19.8 72.5 1022.2 0.1 NNW 1.0 NW 0.0
01:15 19.8 72.5 1022.2 0.1 N 1.0 NW 0.0
01:20 19.8 72.1 1022.2 0.1 NW 1.0 NW 0.0
01:25 19.8 72.1 1022.2 0.1 WNW 1.0 NW 0.0
01:30 19.7 72.2 1022.2 0.0 SSW 1.0 NW 0.0
01:35 19.7 72.2 1022.2 0.0 S 1.0 NW 0.0
01:40 19.8 72.9 1022.2 0.4 WNW 1.0 NW 0.0
01:45 19.8 73.1 1022.2 0.4 NNW 1.0 NW 0.0
01:50 19.7 72.5 1022.2 0.4 NNW 1.0 NW 0.0
01:55 19.7 72.4 1022.2 0.4 NNW 1.0 NW 0.0
01:55 19.7 72.4 1022.2 0.4 NNW 1.0 NW 0.0
01:55 19.7 72.4 1022.2 0.4 NNW 1.0 NW 0.0
02:15 19.4 73.9 1022.2 0.2 NNW 1.0 NW 0.0
02:20 19.2 75.2 1022.2 0.3 N 1.0 NW 0.0
02:25 19.2 75.5 1022.2 0.4 N 1.0 NW 0.0
02:30 19.1 76.1 1022.2 0.2 NNW 1.0 NW 0.0
02:35 19.0 76.3 1022.2 0.1 NNW 1.0 NW 0.0
02:40 19.4 72.1 1022.2 0.4 NNW 1.0 NW 0.0
02:45 19.5 71.2 1022.2 0.4 NNW 1.0 NW 0.0
02:50 19.7 70.4 1022.2 0.9 NNW 1.0 NW 0.0
02:55 19.7 70.1 1022.2 1.0 NNW 1.0 NW 0.0
03:00 19.6 71.3 1022.2 0.7 NNW 1.0 NW 0.0
03:05 19.6 71.6 1022.2 0.7 NNW 1.0 NW 0.0
03:10 19.5 71.7 1022.2 0.3 NNW 1.0 NW 0.0
03:15 19.5 71.8 1022.2 0.3 NNW 1.0 NW 0.0
03:20 19.3 73.0 1022.2 0.6 NNW 1.0 NW 0.0
03:25 19.2 73.3 1022.2 0.7 NNW 1.0 NW 0.0
03:30 18.8 76.4 1022.2 0.5 NNW 1.0 NW 0.0
03:35 18.6 77.2 1022.2 0.4 NNW 1.0 NW 0.0
03:40 19.1 73.0 1022.2 0.7 NNW 1.0 NW 0.0
03:45 19.2 72.0 1022.2 0.7 NNW 1.0 NW 0.0
03:50 19.3 70.4 1022.2 1.1 NNW 1.1 NNW 0.0
03:55 19.4 70.0 1022.2 1.1 NNW 1.1 NNW 0.0
04:00 19.3 73.3 1022.2 0.8 NNW 1.1 NNW 0.0
04:05 19.3 74.1 1022.2 0.7 NNW 1.1 NNW 0.0
04:10 18.9 74.3 1022.2 0.8 NNW 1.1 NNW 0.0
04:15 18.8 74.4 1022.2 0.8 NNW 1.1 NNW 0.0
04:20 18.6 76.9 1022.2 0.3 N 1.1 NNW 0.0
04:25 18.6 77.5 1022.2 0.2 N 1.1 NNW 0.0
04:30 18.3 78.4 1022.2 0.1 ENE 1.1 NNW 0.0
04:35 18.2 78.7 1022.2 0.0 N 1.1 NNW 0.0
04:40 18.1 78.5 1022.2 0.0 ESE 1.1 NNW 0.0
04:45 18.1 78.4 1022.2 0.0 SE 1.1 NNW 0.0
04:50 18.1 79.0 1022.2 0.0 S 1.1 NNW 0.0
Máxima 20.2 79.0 1022.2 1.1 NNW 1.1 NNW 0.0
Mínima 18.1 70.0 1022.2
Total 0.0